Погода в Теморе

Австралия     34°26′46″S   147°32′05″E
темп.,
°C
ветер,
м/с
пор.,
м/с
влажн.,
%
обл.,
%
осадки,
мм/ч
давл.,
гПа
погр.,
м
12 мая, ср
ср1201:00+10ю2386100 0.1 102077
04:00+10юв2488100 0.1 1020117
07:00+9юв228927 0.0 102028
10:00+14вюв35695 0.0 1021735
13:00+17в455469 0.2 10181689
16:00+17всв34520 0.3 10171396
19:00+12ссз11660 0.0 101810
22:00+11ююз11700 0.0 101910
13 мая, чт
чт1301:00+10ююв11760 0.0 101710
04:00+9ссв00840 0.0 101610
07:00+8сз11860 0.0 101610
10:00+14з23635 0.0 1016484
13:00+17зюз565199 0.0 10131456
16:00+16з475221 0.0 10111442
19:00+11з38640 0.0 1013150
22:00+11з4125916 0.0 1014293
14 мая, пт
пт1401:00+10юз6118065 0.0 1014739
04:00+7юз613730 0.0 1015609
07:00+5зюз411880 0.0 1018410
10:00+10зюз6115914 0.0 10181133
13:00+13зюз7104755 0.0 10161882
16:00+13зюз684951 0.0 10161818
19:00+11зюз4951100 0.0 10181184
22:00+11з51150100 0.0 10181228
15 мая, сб
сб1501:00+10зюз713597 0.0 1017966
04:00+7зюз6128012 0.0 1017723
07:00+6зюз715855 0.0 1019786
10:00+10юз9145924 0.1 10201636
13:00+11юз913425 0.0 10191858
16:00+11юз610455 0.0 10201792
19:00+6юз310590 0.0 1024270
22:00+5юз39690 0.0 1025188
16 мая, вс
вс1601:00+4юз34760 0.0 102567
04:00+3юз33810 0.0 102550
07:00+1юз23870 0.0 102737
10:00+8юз47593 0.0 1027709
13:00+11юз564811 0.0 10251403
16:00+11юз564932 0.0 10241525
19:00+6зюз36655 0.0 102688
22:00+5зюз35685 0.0 102672